Cambridge, MD

8:23 AM EDT on May 26, 2017 (GMT -0400)
Cambridge-Dorchester

Weather History for KCGE - April, 2013

Change the Weather History Date:

Thursday, April 11, 2013

  Actual Average (KESN) Record (KESN)
Temperature  
Mean Temperature 64 °F -  
Max Temperature 78 °F 63 °F 84 °F (2013)
Min Temperature 51 °F 38 °F 27 °F (1960)
Growing Degree Days 14 (Base 50)    
Moisture  
Dew Point 56 °F    
Average Humidity 68    
Maximum Humidity 94    
Minimum Humidity 50    
Precipitation  
Precipitation 0.00 in - - ()
Sea Level Pressure  
Sea Level Pressure 29.84 in    
Wind  
Wind Speed 6 mph (SE)    
Max Wind Speed 13 mph    
Max Gust Speed 20 mph    
Visibility 10 miles    
Events      
Averages and records for this station are not official NWS values.
T = Trace of Precipitation, MM = Missing Value Source: NWS Daily Summary

Daily Weather History Graph

Daily Weather History Graph

Search for Another Location

Airport or City:

Trip Planner

Search our weather history database for the weather conditions in past years. The results will help you decide how hot, cold, wet, or windy it might be!

Date:

Astronomy

Apr. 11, 2013 Rise Set
Actual Time 6:33 AM EDT 7:37 PM EDT
Civil Twilight 6:06 AM EDT 8:04 PM EDT
Nautical Twilight 5:34 AM EDT 8:36 PM EDT
Astronomical Twilight 5:00 AM EDT 9:10 PM EDT
Moon 7:04 AM EDT (4/11) 9:08 PM EDT (4/11)
Length of Visible Light 13h 58m
Length of Day
13h 03m
New Moon, 2% of the Moon is Illuminated
Apr 11
New Moon
Apr 18
First Quarter
Apr 25
Full
May 2
Last Quarter
May 9
New

Hourly Weather History & Observations

Time (EDT) Temp. Dew Point Humidity Pressure Visibility Wind Dir Wind Speed Gust Speed Precip Events Conditions
12:24 AM 71.6 °F 55.4 °F 57% 29.84 in 10.0 mi South 3.5 mph - N/A   Clear
12:44 AM 71.6 °F 55.4 °F 57% 29.83 in 10.0 mi South 5.8 mph - N/A   Clear
1:04 AM 69.8 °F 55.4 °F 60% 29.83 in 10.0 mi South 3.5 mph - N/A   Clear
1:24 AM 64.4 °F 55.4 °F 73% 29.84 in 10.0 mi NE 5.8 mph - N/A   Clear
1:45 AM 69.8 °F 55.4 °F 60% 29.84 in 10.0 mi SSW 4.6 mph - N/A   Clear
2:05 AM 69.8 °F 55.4 °F 60% 29.85 in 10.0 mi NNE 5.8 mph - N/A   Clear
2:25 AM 68.0 °F 55.4 °F 64% 29.85 in 10.0 mi Calm Calm - N/A   Clear
2:45 AM 62.6 °F 55.4 °F 77% 29.84 in 10.0 mi Calm Calm - N/A   Clear
3:05 AM 68.0 °F 55.4 °F 64% 29.85 in 10.0 mi NNE 6.9 mph - N/A   Clear
3:25 AM 68.0 °F 55.4 °F 64% 29.86 in 10.0 mi NNE 10.4 mph - N/A   Clear
3:45 AM 68.0 °F 55.4 °F 64% 29.85 in 10.0 mi ENE 8.1 mph - N/A   Clear
4:05 AM 68.0 °F 55.4 °F 64% 29.85 in 10.0 mi East 6.9 mph - N/A   Clear
4:25 AM 64.4 °F 53.6 °F 68% 29.85 in 10.0 mi East 6.9 mph - N/A   Clear
4:45 AM 62.6 °F 53.6 °F 72% 29.85 in 10.0 mi ESE 5.8 mph - N/A   Clear
5:05 AM 62.6 °F 53.6 °F 72% 29.84 in 10.0 mi East 3.5 mph - N/A   Clear
5:25 AM 62.6 °F 53.6 °F 72% 29.84 in 10.0 mi Calm Calm - N/A   Clear
5:45 AM 60.8 °F 53.6 °F 77% 29.83 in 10.0 mi Calm Calm - N/A   Clear
6:05 AM 59.0 °F 53.6 °F 82% 29.84 in 10.0 mi Calm Calm - N/A   Clear
6:25 AM 55.4 °F 51.8 °F 88% 29.84 in 10.0 mi Calm Calm - N/A   Clear
6:45 AM 59.0 °F 53.6 °F 82% 29.87 in 10.0 mi North 3.5 mph - N/A   Clear
7:05 AM 59.0 °F 53.6 °F 82% 29.88 in 10.0 mi Calm Calm - N/A   Clear
7:25 AM 59.0 °F 53.6 °F 82% 29.88 in 10.0 mi Calm Calm - N/A   Clear
7:45 AM 59.0 °F 53.6 °F 82% 29.88 in 10.0 mi SSE 4.6 mph - N/A   Clear
8:05 AM 60.8 °F 55.4 °F 82% 29.87 in 10.0 mi SSE 4.6 mph - N/A   Clear
8:25 AM 62.6 °F 55.4 °F 77% 29.87 in 10.0 mi SSE 5.8 mph - N/A   Clear
8:45 AM 69.8 °F 59.0 °F 68% 29.87 in 10.0 mi SSW 5.8 mph - N/A   Clear
9:05 AM 69.8 °F 55.4 °F 60% 29.87 in 10.0 mi SSW 5.8 mph - N/A   Clear
9:25 AM 71.6 °F 57.2 °F 60% 29.87 in 10.0 mi SSW 6.9 mph - N/A   Clear
9:45 AM 71.6 °F 59.0 °F 64% 29.88 in 10.0 mi SSW 6.9 mph - N/A   Clear
10:05 AM 73.4 °F 60.8 °F 65% 29.88 in 10.0 mi SW 4.6 mph - N/A   Clear
10:26 AM 73.4 °F 59.0 °F 61% 29.88 in 10.0 mi South 8.1 mph - N/A   Clear
10:46 AM 73.4 °F 59.0 °F 61% 29.88 in 10.0 mi South 6.9 mph - N/A   Clear
11:06 AM 73.4 °F 59.0 °F 61% 29.88 in 10.0 mi South 8.1 mph - N/A   Clear
11:26 AM 73.4 °F 59.0 °F 61% 29.88 in 10.0 mi SW 6.9 mph - N/A   Clear
11:46 AM 73.4 °F 59.0 °F 61% 29.87 in 10.0 mi SSW 4.6 mph - N/A   Clear
12:06 PM 77.0 °F 60.8 °F 57% 29.87 in 10.0 mi SSW 6.9 mph - N/A   Clear
12:26 PM 77.0 °F 59.0 °F 54% 29.86 in 10.0 mi SW 6.9 mph - N/A   Clear
12:46 PM 77.0 °F 59.0 °F 54% 29.86 in 10.0 mi SW 9.2 mph - N/A   Clear
1:06 PM 77.0 °F 59.0 °F 54% 29.85 in 10.0 mi SW 6.9 mph - N/A   Clear
1:26 PM 77.0 °F 57.2 °F 50% 29.85 in 10.0 mi SSW 6.9 mph - N/A   Clear
1:46 PM 77.0 °F 59.0 °F 54% 29.84 in 10.0 mi SW 8.1 mph - N/A   Clear
2:06 PM 78.8 °F 59.0 °F 51% 29.84 in 10.0 mi SSW 8.1 mph - N/A   Clear
2:26 PM 78.8 °F 59.0 °F 51% 29.83 in 10.0 mi SSE 3.5 mph - N/A   Clear
2:46 PM 78.8 °F 59.0 °F 51% 29.82 in 10.0 mi South 4.6 mph - N/A   Clear
3:06 PM 78.8 °F 59.0 °F 51% 29.81 in 10.0 mi South 9.2 mph - N/A   Clear
3:26 PM 78.8 °F 59.0 °F 51% 29.81 in 10.0 mi SE 10.4 mph - N/A   Clear
3:46 PM 78.8 °F 59.0 °F 51% 29.80 in 10.0 mi SSE 8.1 mph - N/A   Clear
4:06 PM 78.8 °F 60.8 °F 54% 29.80 in 10.0 mi SSE 9.2 mph - N/A   Clear
4:26 PM 77.0 °F 59.0 °F 54% 29.79 in 10.0 mi SSE 11.5 mph - N/A   Clear
5:06 PM 77.0 °F 59.0 °F 54% 29.79 in 10.0 mi SSE 12.7 mph 19.6 mph N/A   Clear
5:26 PM 77.0 °F 60.8 °F 57% 29.79 in 10.0 mi SE 10.4 mph - N/A   Clear
5:46 PM 73.4 °F 59.0 °F 61% 29.79 in 10.0 mi SE 12.7 mph 16.1 mph N/A   Clear
6:06 PM 73.4 °F 59.0 °F 61% 29.80 in 10.0 mi ENE 12.7 mph 16.1 mph N/A   Clear
6:26 PM 69.8 °F 57.2 °F 64% 29.81 in 10.0 mi ENE 11.5 mph - N/A   Clear
6:47 PM 68.0 °F 53.6 °F 60% 29.81 in 10.0 mi ENE 12.7 mph 17.3 mph N/A   Clear
7:07 PM 62.6 °F 51.8 °F 68% 29.81 in 10.0 mi ENE 9.2 mph - N/A   Clear
7:27 PM 59.0 °F 50.0 °F 72% 29.82 in 10.0 mi ENE 9.2 mph - N/A   Clear
8:47 PM 53.6 °F 50.0 °F 88% 29.85 in 10.0 mi East 10.4 mph 17.3 mph N/A   Mostly Cloudy
9:07 PM 53.6 °F 50.0 °F 88% 29.85 in 10.0 mi East 9.2 mph - N/A   Overcast
9:27 PM 53.6 °F 50.0 °F 88% 29.85 in 10.0 mi East 10.4 mph 17.3 mph N/A   Overcast
9:47 PM 51.8 °F 48.2 °F 88% 29.85 in 10.0 mi East 8.1 mph - N/A   Overcast
10:07 PM 51.8 °F 48.2 °F 88% 29.85 in 7.0 mi East 9.2 mph - N/A   Overcast
10:27 PM 51.8 °F 48.2 °F 88% 29.84 in 7.0 mi ENE 9.2 mph - N/A   Overcast
10:47 PM 51.8 °F 48.2 °F 88% 29.84 in 7.0 mi ENE 8.1 mph - N/A   Overcast
11:07 PM 51.8 °F 50.0 °F 94% 29.83 in 7.0 mi East 6.9 mph - N/A   Overcast
11:27 PM 51.8 °F 50.0 °F 94% 29.83 in 7.0 mi East 9.2 mph - N/A   Overcast
11:47 PM 51.8 °F 50.0 °F 94% 29.83 in 7.0 mi East 6.9 mph - N/A   Overcast